www.pogodaiklimat.ru
ПОГОДА в Дэнвилле
Время
и дата
06:10 07.02
06:30 07.02
06:50 07.02
07:10 07.02
07:30 07.02
07:50 07.02
08:10 07.02
08:30 07.02
08:50 07.02
09:10 07.02
09:30 07.02
09:50 07.02
10:10 07.02
10:30 07.02
10:50 07.02
11:10 07.02
11:30 07.02
11:50 07.02
12:10 07.02
12:30 07.02
12:50 07.02
13:10 07.02
13:30 07.02
13:50 07.02
14:10 07.02
14:30 07.02
14:50 07.02
15:10 07.02
15:30 07.02
15:50 07.02
16:10 07.02
16:30 07.02
16:50 07.02
17:10 07.02
17:30 07.02
17:50 07.02
18:10 07.02
18:30 07.02
18:50 07.02
19:10 07.02
19:30 07.02
19:50 07.02
20:10 07.02
20:30 07.02
20:50 07.02
21:10 07.02
21:30 07.02
21:50 07.02
Ветер
(напр.,м/с)
Видим. Явления Облачность Т
(С)
Тd
(С)
f
(%)
Тe
(С)
Тes
(С)
Комфортность P
(гПа)
Po
(гПа)
Тmin
(С)
Tmax
(С)
R
(мм)
R24
(мм)
S
(см)
Ю 3 16 км ясно +6.0 -2.0 56 +3 +3 984.3
штиль 0 16 км ясно +6.0 -1.0 61 +5 +5 984.3
Ю 3 16 км ясно +6.0 -1.0 61 +3 +3 984.3
Ю 3 16 км ясно +6.0 -1.0 61 +3 +3 984.6
ЮЗ 3 16 км ясно +5.0 -2.0 61 +2 +2 984.6
штиль 0 16 км ясно +5.0 -1.0 65 +4 +4 984.6
Ю 3 16 км ясно +6.0 -1.0 61 +3 +3 984.6
Ю 2 16 км ясно +7.0 -1.0 57 +5 +5 985.0
штиль 0 16 км ясно +7.0 -1.0 57 +7 +7 985.3
штиль 0 16 км ясно +9.0 0.0 53 +9 +11 985.3
ЮЗ 4 16 км ясно +10.0 0.0 50 +8 +9 985.3
ЮЗ 4 16 км ясно +11.0 0.0 47 +9 +10 985.6
ЮЗ 6 16 км ясно +12.0 0.0 44 +10 +11 985.6
ЮЗ 5 16 км ясно +13.0 +1.0 44 +11 +13 985.6
ЮЗ 6
{9}
16 км ясно +13.0 +1.0 44 +11 +13 985.6
ЮЗ 6
{9}
16 км ясно +14.0 +2.0 44 +12 +15 985.3
ЮЗ 5 16 км ясно +16.0 +3.0 42 +15 +18 985.0
ЮЗ 7
{13}
16 км ясно +16.0 +5.0 48 +15 +16 985.3
ЮЗ 8
{12}
16 км ясно +16.0 +5.0 48 +14 +16 985.0
ЮЗ 6
{9}
16 км ясно +17.0 +5.0 45 +16 +19 984.6
ЮЗ 7
{11}
16 км ясно +16.0 +4.0 45 +15 +17 984.3
ЮЗ 7
{10}
16 км ясно +16.0 +5.0 48 +15 +17 984.6
ЮЗ 8
{12}
16 км ясно +17.0 +5.0 45 +16 +17 984.3
ЮЗ 7
{11}
16 км ясно +17.0 +5.0 45 +16 +18 983.7
ЮЗ 7
{9}
16 км ясно +17.0 +6.0 48 +16 +18 983.7
ЮЗ 7
{9}
16 км ясно +17.0 +6.0 48 +16 +18 983.0
ЮЗ 8
{10}
16 км ясно +17.0 +6.0 48 +16 +17 982.7
ЮЗ 7
{12}
16 км ясно +17.0 +6.0 48 +16 +17 983.0
ЮЗ 5
{9}
16 км ясно +17.0 +6.0 48 +16 +19 983.0
ЮЗ 6
{8}
16 км ясно +17.0 +6.0 48 +16 +18 983.3
ЮЗ 6
{9}
16 км ясно +17.0 +6.0 48 +16 +17 983.3
З 5
{8}
16 км ясно +17.0 +6.0 48 +16 +18 983.7
ЮЗ 5 16 км ясно +16.0 +6.0 51 +15 +16 983.7
З 4
{9}
16 км ясно +16.0 +6.0 51 +15 +16 984.0
З 4
{7}
16 км ясно +16.0 +6.0 51 +15 +16 984.0
З 2 16 км 5/5 1500 м +16.0 +6.0 51 +16 +16 984.3
З 4 16 км 5/5 1500 м +15.0 +6.0 55 +14 +14 984.6
штиль 0 16 км 8/8 1500 м +15.0 +6.0 55 +15 +15 985.0
штиль 0 16 км 8/8 1500 м +15.0 +6.0 55 +15 +15 985.0
штиль 0 16 км 5/5 1500 м +14.0 +6.0 59 +14 +14 985.0
штиль 0 16 км 5/5 1500 м +13.0 +6.0 62 +13 +13 985.0
штиль 0 16 км 5/0 3000 m
[Ac]
+11.0 +6.0 71 +11 +11 985.3
штиль 0 16 км 10/8 1290 m
[Ac]
+12.0 +6.0 67 +12 +12 985.3
штиль 0 16 км 10/10 1290 м +11.0 +6.0 71 +11 +11 985.3
штиль 0 16 км 10/10 1290 м +12.0 +6.0 67 +12 +12 985.3
штиль 0 16 км 10/10 1950 м +11.0 +6.0 71 +11 +11 985.3
штиль 0 16 км 10/10 1230 м +12.0 +6.0 67 +12 +12 985.6
штиль 0 16 км 10/10 1230 м +12.0 +7.0 71 +12 +12 985.6
Местоположение метеостанции Stuart Powell Field Airport: широта 37.5776 долгота -84.7695 высота над уровнем моря 312 м.
В архиве по умолчанию представлена погода в Дэнвилле за последние 1-2 суток. Обновление информации о фактической погоде в базе происходит ежечасно! Архивные данные за месяц целиком и за предыдущие месяцы Вы можете получить, выбрав интересующий диапазон дат из раскрывающегося списка и нажав кнопку "Ввод!".
Внимание! Архив погоды МЕТАР в базе сайта по станциям, не включенным в климатический монитор, хранится не более 60 дней. Нет смысла пытаться выбрать более раннюю дату.
*Определитесь, кто Вы:
Внимание! Время в таблицах - местное (без учета летнего времени). Для получения всемирного времени необходимо вычесть поправку, которая равна -5 ч.
Смотрите также архив погоды в соседних городах и на ближайших метеорологических станциях:
Партнеры нашего сайта:      
Пояснения к столбцам:
  • Ветер - указаны скорость ветра в м/с - средняя за 10 мин, порывы в срок и между сроками (в фигурных скобках) и направление, откуда дует ветер: С - северный,
  • СВ - северо-восточный, В - восточный, ЮВ - юго-восточный, Ю - южный, ЮЗ - юго-западный, З - западный, СЗ - северо-западный.
  • Видимость - горизонтальная дальность видимости в метрах или километрах. При видимости от 1 до 10 км при отсутствии осадков обычно наблюдается дымка, при ухудшении видимости до 1 км и менее - туман. В сухую погоду видимость может ухудшаться дымом, пылью или мглою.
  • Явления - указаны атмосферные явления, наблюдавшиеся в срок или в последний час перед сроком; фигурными скобками обозначены явления, наблюдавшиеся между сроками (за 1-3 часа до срока); квадратными скобками обозначены град или гололедные отложения с указанием их диаметра в мм.
  • Облачность - указаны через наклонную черту общая и нижняя облачность в баллах и высота нижней границы облаков в метрах; квадратными скобками обозначены формы облаков: Ci - перистые, Cs - перисто-слоистые, Cc - перисто-кучевые, Ac - высококучевые, As - высокослоистые, Sc - слоисто-кучевые, Ns - слоисто-дождевые, Cu - кучевые, Cb - кучево-дождевые. Подробнее классификацию облаков см. в Атласе облаков (PDF).
  • T - Температура воздуха - температура, измеренная на высоте 2 м над землей.
  • Td - Температура точки росы - температура, при понижении до которой содержащийся в воздухе водяной пар достигнет насыщения.
  • f - Относительная влажность воздуха - влажноcть воздуха, измеренная на высоте 2 м над землей.
  • Te - Эффективная температура - температура, которую ощущает одетый по сезону человек в тени. Характеристика душности погоды. При расчете учитывается влияние влажности воздуха и скорости ветра на теплоощущения человека.
  • Tes - Эффективная температура на солнце - температура, которую ощущает человек, с поправкой на солнечный нагрев. Характеристика знойности погоды. Зависит от высоты солнца над горизонтом, облачности и скорости ветра. Ночью, в пасмурную погоду, а также при ветре 12 м/с и более поправка равна нулю.
  • P - Атмосферное давление - приведенное к уровню моря атмосферное давление.
  • Po - Атмосферное давление - измеренное на уровне метеостанции атмосферное давление.
  • Tmin - Минимальная температура - минимум температуры воздуха на высоте 2 м над землей.
  • Tmax - Максимальная температура - максимум температуры воздуха на высоте 2 м над землей.
  • R - Количество осадков - Количество выпавших осадков за период времени, мм. При наведении курсора мыши на число - период времени, за который выпало указанное количество осадков.
  • R24 - Количество осадков - Количество выпавших осадков за 24 часа, мм.
  • S - Снежный покров - Высота снежного покрова, см. При наведении курсора мыши на число - состояние снежного покрова и степень покрытия местности в баллах.